| time (UTC) | temp F | wind direction | speed MPH | gust MPH | rain 1hr in | rain 24hr in | rain mn in | humidity % | barometer mb |
| 20260505125006 | 54 | 349 | 7.0 | 14.0 | 0.00 | 0.00 | 0.00 | 64 | 1009.9 |
| 20260505124006 | 54 | 319 | 8.0 | 15.0 | 0.00 | 0.00 | 0.00 | 71 | 1009.9 |
| 20260505123008 | 53 | 313 | 7.0 | 17.0 | 0.00 | 0.00 | 0.00 | 74 | 1009.9 |
| 20260505122006 | 53 | 300 | 6.0 | 16.0 | 0.00 | 0.00 | 0.00 | 73 | 1009.9 |
| 20260505121005 | 53 | 296 | 8.0 | 17.0 | 0.00 | 0.00 | 0.00 | 73 | 1009.9 |
| 20260505120008 | 53 | 290 | 5.0 | 15.0 | 0.00 | 0.00 | 0.00 | 72 | 1009.9 |
| 20260505115005 | 53 | 297 | 7.0 | 16.0 | 0.00 | 0.00 | 0.00 | 72 | 1009.9 |
| 20260505114006 | 53 | 300 | 2.0 | 15.0 | 0.00 | 0.00 | 0.00 | 72 | 1009.9 |
| 20260505113008 | 53 | 275 | 6.0 | 14.0 | 0.00 | 0.00 | 0.00 | 73 | 1009.9 |
| 20260505112005 | 53 | 284 | 1.0 | 10.0 | 0.00 | 0.00 | 0.00 | 71 | 1009.9 |
| 20260505111005 | 53 | 300 | 0.0 | 10.0 | 0.00 | 0.00 | 0.00 | 74 | 1009.9 |
| 20260505102006 | 52 | 301 | 2.0 | 12.0 | 0.00 | 0.00 | 0.00 | 77 | 1010.1 |
| 20260505101005 | 52 | 305 | 6.0 | 13.0 | 0.00 | 0.00 | 0.00 | 76 | 1010.2 |
| 20260505100009 | 52 | 271 | 3.0 | 15.0 | 0.00 | 0.00 | 0.00 | 77 | 1010.3 |
| 20260505095005 | 53 | 293 | 2.0 | 9.0 | 0.00 | 0.00 | 0.00 | 79 | 1010.3 |
| 20260505094006 | 52 | 305 | 3.0 | 12.0 | 0.00 | 0.00 | 0.00 | 80 | 1010.3 |
| 20260505093007 | 52 | 292 | 1.0 | 12.0 | 0.00 | 0.00 | 0.00 | 79 | 1010.3 |
| 20260505092006 | 52 | 287 | 6.0 | 14.0 | 0.00 | 0.00 | 0.00 | 80 | 1010.3 |
| 20260505091005 | 52 | 301 | 3.0 | 14.0 | 0.00 | 0.00 | 0.00 | 80 | 1010.3 |
| 20260505090007 | 51 | 298 | 5.0 | 12.0 | 0.00 | 0.00 | 0.00 | 81 | 1010.2 |
| 20260505085006 | 51 | 299 | 6.0 | 13.0 | 0.00 | 0.00 | 0.00 | 80 | 1010.3 |
| 20260505084005 | 51 | 300 | 1.0 | 12.0 | 0.00 | 0.00 | 0.00 | 79 | 1010.2 |
| 20260505083007 | 51 | 291 | 5.0 | 13.0 | 0.00 | 0.00 | 0.00 | 80 | 1010.2 |
| 20260505082005 | 51 | 292 | 1.0 | 12.0 | 0.00 | 0.00 | 0.00 | 82 | 1010.0 |
| 20260505081005 | 50 | 292 | 4.0 | 15.0 | 0.00 | 0.00 | 0.00 | 81 | 1010.0 |
| 20260505080008 | 50 | 309 | 5.0 | 13.0 | 0.00 | 0.00 | 0.00 | 82 | 1009.9 |
| 20260505075005 | 49 | 318 | 7.0 | 16.0 | 0.00 | 0.00 | 0.00 | 81 | 1009.9 |
| 20260505074006 | 49 | 306 | 6.0 | 14.0 | 0.00 | 0.00 | 0.00 | 83 | 1009.9 |
| 20260505073007 | 49 | 312 | 8.0 | 18.0 | 0.00 | 0.00 | 0.00 | 82 | 1009.9 |
| 20260505072006 | 49 | 328 | 7.0 | 13.0 | 0.00 | 0.00 | 0.00 | 84 | 1009.8 |
| 20260505071005 | 49 | 334 | 10.0 | 17.0 | 0.00 | 0.00 | 0.00 | 83 | 1009.8 |
| 20260505070009 | 49 | 309 | 5.0 | 14.0 | 0.00 | 0.00 | 0.00 | 85 | 1009.8 |
| 20260505065005 | 48 | 324 | 3.0 | 13.0 | 0.00 | 0.00 | 0.00 | 85 | 1009.8 |
| 20260505064005 | 48 | 316 | 5.0 | 12.0 | 0.00 | 0.00 | 0.00 | 85 | 1009.8 |
| 20260505063008 | 48 | 303 | 1.0 | 12.0 | 0.00 | 0.00 | 0.00 | 85 | 1009.8 |
| 20260505062005 | 47 | 320 | 3.0 | 13.0 | 0.00 | 0.00 | 0.00 | 85 | 1009.8 |
| 20260505061005 | 47 | 334 | 5.0 | 12.0 | 0.00 | 0.00 | 0.00 | 85 | 1009.8 |
| 20260505060007 | 47 | 338 | 9.0 | 14.0 | 0.00 | 0.00 | 0.00 | 85 | 1009.7 |
| 20260505055006 | 47 | 326 | 8.0 | 12.0 | 0.00 | 0.00 | 0.00 | 86 | 1009.8 |
| 20260505054005 | 47 | 311 | 2.0 | 13.0 | 0.00 | 0.00 | 0.00 | 85 | 1009.8 |
| 20260505053007 | 47 | 306 | 3.0 | 13.0 | 0.00 | 0.00 | 0.00 | 86 | 1009.8 |
| 20260505052005 | 47 | 312 | 7.0 | 15.0 | 0.00 | 0.00 | 0.00 | 86 | 1009.8 |
| 20260505051005 | 47 | 299 | 1.0 | 9.0 | 0.00 | 0.00 | 0.00 | 87 | 1009.8 |
| 20260505041005 | 46 | 289 | 0.0 | 3.0 | 0.00 | 0.00 | 0.00 | 88 | 1009.7 |
| 20260505040010 | 46 | 304 | 0.0 | 6.0 | 0.00 | 0.00 | 0.00 | 88 | 1009.6 |
| 20260505035006 | 46 | 295 | 0.0 | 3.0 | 0.00 | 0.00 | 0.00 | 88 | 1009.6 |
| 20260505034006 | 46 | 294 | 0.0 | 7.0 | 0.00 | 0.00 | 0.00 | 87 | 1009.7 |
| 20260505033009 | 46 | 297 | 0.0 | 10.0 | 0.00 | 0.00 | 0.00 | 87 | 1009.6 |
| 20260505032007 | 46 | 296 | 0.0 | 7.0 | 0.00 | 0.00 | 0.00 | 87 | 1009.6 |
| 20260505031006 | 46 | 300 | 0.0 | 10.0 | 0.00 | 0.00 | 0.00 | 87 | 1009.5 |
| 20260505030008 | 46 | 299 | 0.0 | 5.0 | 0.00 | 0.00 | 0.00 | 87 | 1009.5 |
| 20260505025006 | 46 | 318 | 3.0 | 8.0 | 0.00 | 0.00 | 0.00 | 87 | 1009.5 |
| 20260505024006 | 46 | 318 | 3.0 | 10.0 | 0.00 | 0.00 | 0.00 | 87 | 1009.5 |
| 20260505023008 | 46 | 307 | 5.0 | 10.0 | 0.00 | 0.00 | 0.00 | 87 | 1009.6 |
| 20260505022006 | 45 | 331 | 4.0 | 10.0 | 0.00 | 0.00 | 0.00 | 87 | 1009.7 |
| 20260505021005 | 46 | 315 | 3.0 | 8.0 | 0.00 | 0.00 | 0.00 | 87 | 1009.8 |
| 20260505020009 | 46 | 309 | 2.0 | 12.0 | 0.00 | 0.00 | 0.00 | 87 | 1009.8 |
| 20260505015006 | 46 | 307 | 0.0 | 10.0 | 0.00 | 0.00 | 0.00 | 87 | 1009.9 |
| 20260505014005 | 46 | 317 | 4.0 | 13.0 | 0.00 | 0.01 | 0.00 | 86 | 1009.9 |
| 20260505013008 | 46 | 322 | 7.0 | 13.0 | 0.00 | 0.01 | 0.00 | 87 | 1009.9 |
| 20260505012006 | 46 | 319 | 6.0 | 12.0 | 0.00 | 0.01 | 0.00 | 87 | 1009.9 |
| 20260505011006 | 46 | 311 | 3.0 | 12.0 | 0.00 | 0.01 | 0.00 | 87 | 1009.9 |
| 20260505010009 | 46 | 312 | 3.0 | 12.0 | 0.00 | 0.01 | 0.00 | 86 | 1009.9 |
| 20260505005006 | 46 | 314 | 8.0 | 13.0 | 0.00 | 0.01 | 0.00 | 87 | 1009.9 |
| 20260505004006 | 46 | 299 | 2.0 | 12.0 | 0.00 | 0.02 | 0.00 | 87 | 1010.0 |
| 20260505003008 | 46 | 303 | 1.0 | 8.0 | 0.00 | 0.02 | 0.00 | 88 | 1010.1 |
| 20260505002006 | 46 | 313 | 2.0 | 12.0 | 0.00 | 0.02 | 0.00 | 88 | 1010.2 |
| 20260505001006 | 46 | 320 | 4.0 | 10.0 | 0.00 | 0.02 | 0.00 | 88 | 1010.2 |
| 20260505000008 | 46 | 339 | 1.0 | 9.0 | 0.00 | 0.02 | 0.00 | 87 | 1010.2 |
| 20260504235006 | 46 | 329 | 1.0 | 9.0 | 0.00 | 0.02 | 0.00 | 87 | 1010.2 |
| 20260504234005 | 46 | 327 | 2.0 | 8.0 | 0.00 | 0.02 | 0.00 | 87 | 1010.2 |
| 20260504233008 | 46 | 325 | 3.0 | 10.0 | 0.00 | 0.02 | 0.00 | 87 | 1010.1 |
| 20260504232006 | 46 | 338 | 4.0 | 10.0 | 0.00 | 0.02 | 0.00 | 87 | 1010.0 |
| 20260504231006 | 46 | 327 | 3.0 | 8.0 | 0.00 | 0.02 | 0.00 | 87 | 1010.1 |
| 20260504230007 | 46 | 325 | 1.0 | 9.0 | 0.00 | 0.02 | 0.00 | 88 | 1010.2 |
| 20260504225005 | 46 | 334 | 1.0 | 10.0 | 0.00 | 0.03 | 0.00 | 88 | 1010.2 |
| 20260504224006 | 46 | 338 | 2.0 | 9.0 | 0.00 | 0.03 | 0.00 | 88 | 1010.3 |
| 20260504223008 | 46 | 344 | 2.0 | 10.0 | 0.00 | 0.04 | 0.00 | 87 | 1010.3 |
| 20260504222006 | 46 | 323 | 2.0 | 7.0 | 0.00 | 0.05 | 0.00 | 87 | 1010.3 |
| 20260504221006 | 46 | 315 | 2.0 | 6.0 | 0.00 | 0.05 | 0.00 | 87 | 1010.3 |
| 20260504220008 | 47 | 322 | 0.0 | 5.0 | 0.00 | 0.06 | 0.00 | 87 | 1010.4 |
| 20260504215005 | 47 | 333 | 1.0 | 6.0 | 0.00 | 0.06 | 0.06 | 87 | 1010.4 |
| 20260504214006 | 47 | 336 | 1.0 | 7.0 | 0.00 | 0.06 | 0.06 | 87 | 1010.4 |
| 20260504213008 | 47 | 333 | 0.0 | 5.0 | 0.00 | 0.07 | 0.06 | 86 | 1010.4 |
| 20260504212006 | 47 | 327 | 1.0 | 5.0 | 0.00 | 0.09 | 0.06 | 86 | 1010.4 |
| 20260504211006 | 47 | 341 | 1.0 | 3.0 | 0.00 | 0.10 | 0.06 | 85 | 1010.4 |
| 20260504210008 | 48 | 342 | 0.0 | 3.0 | 0.00 | 0.12 | 0.06 | 85 | 1010.3 |
| 20260504205006 | 48 | 353 | 0.0 | 0.0 | 0.00 | 0.13 | 0.06 | 84 | 1010.3 |
| 20260504204005 | 49 | 353 | 0.0 | 1.0 | 0.00 | 0.13 | 0.06 | 84 | 1010.3 |
| 20260504203008 | 49 | 0 | 0.0 | 1.0 | 0.00 | 0.13 | 0.06 | 83 | 1010.2 |
| 20260504202006 | 49 | 359 | 0.0 | 2.0 | 0.00 | 0.14 | 0.06 | 82 | 1010.0 |
| 20260504201005 | 49 | 334 | 1.0 | 5.0 | 0.00 | 0.16 | 0.06 | 81 | 1010.0 |
| 20260504200008 | 49 | 272 | 0.0 | 0.0 | 0.00 | 0.17 | 0.06 | 80 | 1010.0 |
| 20260504195005 | 50 | 249 | 0.0 | 0.0 | 0.00 | 0.21 | 0.06 | 78 | 1009.9 |
| 20260504194006 | 50 | 256 | 0.0 | 0.0 | 0.00 | 0.25 | 0.06 | 76 | 1009.9 |
| 20260504193009 | 51 | 255 | 0.0 | 0.0 | 0.00 | 0.25 | 0.06 | 75 | 1009.8 |
| 20260504192006 | 51 | 227 | 0.0 | 0.0 | 0.00 | 0.25 | 0.06 | 74 | 1009.8 |
| 20260504191005 | 52 | 254 | 0.0 | 0.0 | 0.00 | 0.25 | 0.06 | 73 | 1009.8 |
| 20260504190018 | 52 | 220 | 0.0 | 1.0 | 0.00 | 0.25 | 0.06 | 71 | 1009.8 |
| 20260504185005 | 52 | 228 | 0.0 | 2.0 | 0.00 | 0.25 | 0.06 | 70 | 1009.8 |
| 20260504184005 | 53 | 218 | 0.0 | 1.0 | 0.00 | 0.25 | 0.06 | 70 | 1009.8 |
| 20260504183008 | 53 | 222 | 0.0 | 0.0 | 0.00 | 0.25 | 0.06 | 71 | 1009.7 |
| 20260504182005 | 53 | 234 | 0.0 | 0.0 | 0.00 | 0.25 | 0.06 | 72 | 1009.7 |
| 20260504181006 | 54 | 292 | 0.0 | 2.0 | 0.00 | 0.25 | 0.06 | 72 | 1009.7 |
| 20260504180008 | 54 | 240 | 0.0 | 0.0 | 0.00 | 0.25 | 0.06 | 70 | 1009.7 |
| 20260504175005 | 55 | 261 | 0.0 | 3.0 | 0.00 | 0.25 | 0.06 | 69 | 1009.6 |
| 20260504174005 | 55 | 256 | 0.0 | 3.0 | 0.00 | 0.25 | 0.06 | 68 | 1009.5 |
| 20260504173008 | 55 | 277 | 0.0 | 1.0 | 0.00 | 0.25 | 0.06 | 68 | 1009.7 |
| 20260504172005 | 55 | 298 | 0.0 | 1.0 | 0.00 | 0.25 | 0.06 | 67 | 1009.7 |
| 20260504171005 | 56 | 289 | 0.0 | 1.0 | 0.00 | 0.25 | 0.06 | 68 | 1009.6 |
| 20260504151006 | 57 | 288 | 0.0 | 7.0 | 0.00 | 0.25 | 0.06 | 65 | 1009.8 |
| 20260504141006 | 58 | 291 | 0.0 | 3.0 | 0.00 | 0.25 | 0.06 | 65 | 1009.9 |